This is the latest recevied weather packets stored in our database for station/object KMASWX. If no packets are shown the sender has not sent any weather packets the latest 10 day(s).
| Time | Temp. | Humidity | Pressure | Rain* | Wind** | Luminosity | Snow |
|---|---|---|---|---|---|---|---|
| 1777576568 | 20.56° C | 37% | - | 0 mm | - | - | - |
| 1777576265 | 20° C | 36% | - | 0 mm | - | - | - |
| 1777575958 | 20° C | 37% | - | 0 mm | - | - | - |
| 1777575655 | 20° C | 39% | - | 0 mm | - | - | - |
| 1777575351 | 19.44° C | 38% | - | 0 mm | - | - | - |
| 1777575048 | 18.89° C | 38% | - | 0 mm | - | - | - |
| 1777574742 | 18.89° C | 42% | - | 0 mm | - | - | - |
| 1777574437 | 18.33° C | 41% | - | 0 mm | - | - | - |
| 1777574134 | 17.78° C | 42% | - | 0 mm | - | - | - |
| 1777573830 | 17.78° C | 41% | - | 0 mm | - | - | - |
| 1777573222 | 17.78° C | 44% | - | 0 mm | - | - | - |
| 1777572918 | 17.22° C | 44% | - | 0 mm | - | - | - |
| 1777572307 | 17.22° C | 43% | - | 0 mm | - | - | - |
| 1777572003 | 17.78° C | 44% | - | 0 mm | - | - | - |
| 1777571699 | 16.67° C | 45% | - | 0 mm | - | - | - |
| 1777571392 | 16.67° C | 44% | - | 0 mm | - | - | - |
| 1777571088 | 16.11° C | 46% | - | 0 mm | - | - | - |
| 1777570782 | 16.11° C | 48% | - | 0 mm | - | - | - |
| 1777570479 | 15.56° C | 50% | - | 0 mm | - | - | - |
| 1777569872 | 14.44° C | 50% | - | 0 mm | - | - | - |
| 1777569568 | 14.44° C | 51% | - | 0 mm | - | - | - |
| 1777569261 | 13.89° C | 52% | - | 0 mm | - | - | - |
| 1777568956 | 13.89° C | 53% | - | 0 mm | - | - | - |
| 1777568650 | 13.89° C | 54% | - | 0 mm | - | - | - |
| 1777568346 | 13.33° C | 54% | - | 0 mm | - | - | - |
* Rain latest 24 hours (hover to see other rain measurements)
** Current wind speed in m/s (hover to see current wind gust speed)